CW6726 Weather Reports


Display with metric or nautical units.
time (UTC)temp
F
wind
direction
speed
MPH
gust
MPH
rain 1hr
in
rain 24hr
in
rain mn
in
humidity
%
barometer
mb
20260505100107 57 31 5.0 12.0 0.00 0.14 0.00 76 1010.1
20260505095105 57 13 5.0 12.0 0.00 0.14 0.00 76 1010.1
20260505094604 57 29 8.0 13.0 0.00 0.14 0.00 76 1010.2
20260505093605 57 34 4.0 10.0 0.00 0.14 0.00 78 1010.2
20260505091605 56 26 5.0 13.0 0.00 0.14 0.00 82 1010.4
20260505091105 55 25 5.0 10.0 0.00 0.14 0.00 81 1010.4
20260505090605 55 35 6.0 12.0 0.00 0.14 0.00 82 1010.4
20260505090105 55 2 7.0 13.0 0.00 0.14 0.00 83 1010.4
20260505085604 55 353 4.0 12.0 0.00 0.14 0.00 83 1010.4
20260505085105 55 17 6.0 10.0 0.00 0.14 0.00 84 1010.4
20260505084105 54 22 7.0 13.0 0.00 0.14 0.00 84 1010.4
20260505083605 54 17 5.0 10.0 0.00 0.14 0.00 85 1010.4
20260505082605 54 17 6.0 12.0 0.00 0.14 0.00 86 1010.4
20260505082105 53 26 5.0 9.0 0.00 0.14 0.00 86 1010.4
20260505081104 53 5 7.0 12.0 0.00 0.14 0.00 87 1010.4
20260505080605 53 5 5.0 10.0 0.00 0.14 0.00 88 1010.4
20260505074605 52 33 5.0 10.0 0.00 0.14 0.00 89 1010.3
20260505074105 52 14 7.0 12.0 0.00 0.14 0.00 90 1010.3
20260505073605 52 31 5.0 8.0 0.00 0.14 0.00 90 1010.3
20260505073104 51 30 5.0 9.0 0.00 0.14 0.00 90 1010.3
20260505072605 51 13 5.0 12.0 0.00 0.14 0.00 91 1010.4
20260505070605 51 28 5.0 9.0 0.00 0.14 0.00 91 1010.5
20260505065605 51 18 5.0 9.0 0.00 0.14 0.00 92 1010.5
20260505065104 50 15 5.0 10.0 0.00 0.14 0.00 92 1010.5
20260505064605 50 16 5.0 9.0 0.00 0.14 0.00 92 1010.5
20260505064104 50 5 4.0 6.0 0.00 0.14 0.00 92 1010.6
20260505062604 49 5 2.0 5.0 0.00 0.14 0.00 92 1010.5
20260505062105 49 5 3.0 7.0 0.00 0.14 0.00 92 1010.5
20260505061105 49 5 3.0 7.0 0.00 0.14 0.00 92 1010.5
20260505060605 49 5 3.0 7.0 0.00 0.14 0.00 92 1010.5
20260505060105 49 5 5.0 7.0 0.00 0.14 0.00 92 1010.5
20260505055105 49 5 5.0 7.0 0.00 0.14 0.00 92 1010.5
20260505050105 49 23 3.0 6.0 0.00 0.14 0.00 92 1010.4
20260505041105 50 30 3.0 3.0 0.00 0.14 0.00 91 1010.7
20260505034604 51 30 2.0 3.0 0.00 0.14 0.00 91 1010.7
20260505034105 51 30 2.0 3.0 0.00 0.14 0.00 91 1010.6
20260505033605 51 30 0.0 2.0 0.00 0.14 0.00 91 1010.7
20260505033105 51 30 0.0 3.0 0.00 0.14 0.00 91 1010.7
20260505032605 51 30 3.0 5.0 0.00 0.14 0.00 91 1010.8
20260505025105 51 30 0.0 1.0 0.00 0.14 0.00 91 1010.7
20260505022105 51 30 0.0 0.0 0.00 0.14 0.00 91 1010.6
20260505015604 52 30 0.0 0.0 0.00 0.14 0.00 90 1010.7
20260505015105 52 30 0.0 0.0 0.00 0.14 0.00 91 1010.8
20260505014105 53 30 1.0 3.0 0.00 0.14 0.00 90 1011.0
20260505013105 53 30 1.0 3.0 0.00 0.14 0.00 90 1011.0
20260505012604 53 30 1.0 3.0 0.00 0.14 0.00 91 1010.9
20260505011605 53 30 2.0 3.0 0.00 0.14 0.00 91 1011.1
20260505011105 53 30 2.0 3.0 0.00 0.14 0.00 90 1011.2
20260505010605 53 30 0.0 1.0 0.00 0.14 0.00 90 1011.2
20260505010106 53 30 0.0 0.0 0.00 0.14 0.00 90 1011.2
20260505004605 54 30 3.0 5.0 0.00 0.14 0.00 90 1011.1
20260505003105 54 30 1.0 3.0 0.00 0.14 0.00 90 1011.4
20260505002105 54 30 0.0 1.0 0.00 0.14 0.00 90 1011.4
20260505001605 54 30 1.0 3.0 0.00 0.14 0.00 90 1011.5
20260505000605 54 30 0.0 3.0 0.00 0.14 0.00 90 1011.5
20260504235105 54 30 1.0 3.0 0.00 0.14 0.00 90 1011.6
20260504234605 54 30 2.0 5.0 0.00 0.14 0.00 90 1011.6
20260504233605 54 30 2.0 5.0 0.00 0.14 0.00 90 1011.6
20260504233105 54 30 2.0 5.0 0.00 0.14 0.00 90 1011.5
20260504232606 54 30 2.0 5.0 0.00 0.14 0.00 90 1011.5
20260504232105 54 30 3.0 6.0 0.00 0.14 0.00 90 1011.5
20260504231108 54 30 3.0 5.0 0.00 0.14 0.00 90 1011.5
20260504230605 54 30 2.0 3.0 0.00 0.14 0.00 90 1011.6
20260504230104 54 30 2.0 3.0 0.00 0.14 0.00 90 1011.6
20260504223104 54 30 0.0 0.0 0.00 0.14 0.14 90 1011.6
20260504222605 55 30 0.0 1.0 0.01 0.14 0.14 90 1011.6
20260504222105 55 30 1.0 3.0 0.01 0.14 0.14 90 1011.6
20260504221604 55 30 2.0 3.0 0.01 0.14 0.14 90 1011.6
20260504220605 55 30 2.0 3.0 0.01 0.14 0.14 90 1011.6
20260504215605 55 30 2.0 3.0 0.01 0.14 0.14 90 1011.7
20260504214105 55 30 0.0 3.0 0.01 0.14 0.14 90 1011.7
20260504212605 55 30 2.0 3.0 0.00 0.13 0.13 90 1011.8
20260504211605 55 30 2.0 3.0 0.01 0.13 0.13 90 1011.9
20260504211105 55 30 2.0 3.0 0.01 0.13 0.13 89 1011.9
20260504210605 55 30 2.0 3.0 0.01 0.13 0.13 89 1011.9
20260504205105 56 30 1.0 3.0 0.01 0.13 0.13 90 1011.8
20260504204604 56 30 2.0 3.0 0.01 0.13 0.13 89 1011.9
20260504204105 56 30 2.0 3.0 0.01 0.13 0.13 89 1011.8
20260504203105 56 30 0.0 3.0 0.01 0.13 0.13 89 1011.8
20260504202605 56 30 0.0 2.0 0.01 0.13 0.13 89 1011.8
20260504200105 57 30 0.0 0.0 0.01 0.12 0.12 89 1011.6
20260504195605 57 30 0.0 3.0 0.01 0.12 0.12 89 1011.6
20260504195104 57 30 1.0 3.0 0.01 0.12 0.12 89 1011.6
20260504193605 57 30 0.0 3.0 0.02 0.12 0.12 89 1011.5
20260504192105 57 30 0.0 0.0 0.02 0.12 0.12 88 1011.4
20260504190604 57 30 0.0 1.0 0.03 0.12 0.12 88 1011.2
20260504185605 57 30 0.0 0.0 0.03 0.11 0.11 88 1011.2
20260504185105 58 30 0.0 0.0 0.04 0.11 0.11 88 1011.1
20260504184605 58 30 0.0 0.0 0.05 0.11 0.11 87 1011.1
20260504184105 58 30 0.0 0.0 0.06 0.11 0.11 88 1011.0
20260504183605 58 30 0.0 1.0 0.06 0.10 0.10 87 1011.1
20260504180604 58 30 0.0 0.0 0.07 0.09 0.09 86 1011.0
20260504180105 58 30 0.0 0.0 0.07 0.08 0.08 86 1011.0
20260504175605 58 30 0.0 0.0 0.08 0.08 0.08 86 1011.0
20260504174605 58 30 0.0 1.0 0.06 0.06 0.06 85 1010.9
20260504174106 58 30 1.0 3.0 0.05 0.05 0.05 85 1010.9
20260504173605 59 30 0.0 1.0 0.04 0.04 0.04 85 1010.9
20260504173105 59 30 2.0 3.0 0.03 0.03 0.03 84 1010.9
20260504172605 59 30 0.0 1.0 0.03 0.03 0.03 84 1010.9
20260504171105 60 30 2.0 5.0 0.02 0.02 0.02 82 1010.8
20260504170106 60 30 2.0 3.0 0.01 0.01 0.01 81 1010.8
20260504151104 64 17 3.0 9.0 0.00 0.00 0.00 69 1010.5
20260504150605 64 12 2.0 7.0 0.00 0.00 0.00 69 1010.5
20260504130604 65 27 5.0 9.0 0.00 0.00 0.00 70 1010.7
20260504130105 64 7 7.0 9.0 0.00 0.00 0.00 71 1010.8
20260504120105 66 25 3.0 10.0 0.00 0.00 0.00 68 1010.7
20260504110605 64 150 0.0 2.0 0.00 0.00 0.00 71 1011.1